Miscellaneous Local Product
Issued by NWS North Platte, NE

Home | Current Version | Previous Version | Text Only | Print | Product List | Glossary On
Versions: 1 2 3 4 5 6 7 8 9 10 11 12 13 14 15 16 17 18 19 20 21 22 23 24 25 26 27 28 29 30 31 32 33 34 35 36 37 38 39 40 41 42 43 44 45 46 47 48 49 50
000
AXUS43 KLBF 170210
MISLBF


WESTERN AND NORTH CENTRAL NEBRASKA HOURLY WEATHER ROUNDUP
NATIONAL WEATHER SERVICE NORTH PLATTE NE
800 PM CST TUE DEC 16 2014

***STATIONS NOT REPORTING VARIABLES SUCH AS SKY/WEATHER OR
PRESSURE ARE PROVIDED BY THE NEBRASKA DEPARTMENT OF
ROADS...RAWS...AND APRS NETWORKS...AND ARE NOT UNDER
NATIONAL WEATHER SERVICE QUALITY CONTROL***

...OBSERVATIONS IN AND NEAR THE EASTERN PANHANDLE OF NEBRASKA...

CITY           SKY/WX    TMP DP  RH WIND       PRES   REMARKS
PINE RIDGE     CLOUDY    20  17  88 SE6       30.15S WCI  12
CHADRON        PTCLDY    16  13  88 SE6       30.15S WCI   7
ALLIANCE       CLOUDY    20  18  92 SE9       30.11R WCI   9
SIDNEY         CLOUDY    18  16  92 SE10      30.10F FOG     WCI   6
WHITECLAY        N/A     19  16  86 SE7         N/A  WCI  10
CRESCENT LAKE    N/A     19  17  91 SE8         N/A  WCI   9
LISCO            N/A     23  19  87 E16         N/A  WCI   9
BIG SPRINGS      N/A     21  20  94 E5          N/A  WCI  15
$$

...OBSERVATIONS IN NORTH CENTRAL NEBRASKA...

CITY           SKY/WX    TMP DP  RH WIND       PRES   REMARKS
VALENTINE      CLOUDY    20  16  84 E3        30.25S
THEDFORD       CLOUDY    19  18  94 CALM      30.25R
AINSWORTH      CLOUDY    19  16  88 CALM      30.26R
O`NEILL        CLOUDY    19  18  93 NW3       30.31S
ORD            CLOUDY    20  15  81 N7        30.30S WCI  11
BROKEN BOW     CLOUDY    21  18  88 CALM      30.27R
BROWNLEE         N/A     17  14  90 CALM        N/A
SPRINGVIEW       N/A     19  15  84 CALM        N/A
BREWSTER         N/A     24  21  91 CALM        N/A
ROSE             N/A     24  24 100 MISG        N/A
SARGENT          N/A     21  18  89 CALM        N/A
COMSTOCK         N/A     27  23  84 CALM        N/A
CHAMBERS         N/A     19  15  82 CALM        N/A
$$

...OBSERVATIONS IN SOUTHWEST NEBRASKA AND FAR NORTHEAST COLORADO...

CITY           SKY/WX    TMP DP  RH WIND       PRES   REMARKS
WRAY           CLOUDY    25  24  96 E7        30.17S WCI  18
IMPERIAL       MOCLDY    24  20  84 E5        30.20F WCI  18
OGALLALA       CLOUDY    23  21  94 SE3       30.20F
NORTH PLATTE   PTCLDY    17  14  88 E5        30.25S WCI  10
MCCOOK         CLOUDY    23  19  85 E10       30.26S WCI  12
LEXINGTON      CLOUDY    22  19  86 NE6       30.28S WCI  15
PAXTON           N/A     22  20  90 E5          N/A  WCI  16
BRADY            N/A     18  15  87 CALM        N/A
GOTHENBURG       N/A     20  16  84 CALM        N/A
CALLAWAY         N/A     19  17  93 NE3         N/A
$$

...NORTH PLATTE AREA...

CITY           SKY/WX    TMP DP  RH WIND       PRES   REMARKS
AIRPORT        PTCLDY    17  14  88 E5        30.25S WCI  10
$$

...SOME WEATHER OBSERVATIONS FROM AROUND THE REGION...

CITY           SKY/WX    TMP DP  RH WIND       PRES   REMARKS
DENVER         MOCLDY    29  21  72 SW3       30.04S
LARAMIE        PTCLDY    20  14  77 NW7       30.01R WCI  11
CHEYENNE       MOCLDY    30  18  60 S3        30.01S
SCOTTSBLUFF    CLOUDY    20  18  92 E13       30.09S WCI   7
RAPID CITY     CLOUDY    20  17  88 SE10      30.16S WCI   9
PIERRE         CLOUDY    20  15  81 E5        30.30F WCI  13
WINNER         CLOUDY    21  15  78 NE6       30.29F WCI  13
SIOUX FALLS    PTCLDY     8   5  87 NW3       30.33R
OMAHA          CLEAR     21  15  78 NW16      30.36S WCI   7
GRAND ISLAND   CLOUDY    21  16  81 N5        30.33R WCI  15
KANSAS CITY    CLOUDY    27  21  78 NW7       30.33S WCI  19
WICHITA        PTCLDY    33  24  69 NE8       30.32R WCI  26
HAYS           MOCLDY    27  16  63 NE9       30.29S WCI  17
LIBERAL        CLOUDY    37  19  48 SE12      30.20S WCI  30
GOODLAND       CLOUDY    28  23  81 SE14      30.16R WCI  17
$$



USA.gov is the U.S. government's official web portal to all federal, state and local government web resources and services.